Weather History for Niederrhein, Germany

Change the Weather History Date:

Friday, February 15, 2013

  Actual Average Record
Temperature  
Mean Temperature 36 °F -  
Max Temperature 39 °F - - ()
Min Temperature 33 °F - - ()
Degree Days  
Heating Degree Days 29    
Moisture  
Dew Point 37 °F    
Average Humidity 99    
Maximum Humidity 100    
Minimum Humidity 93    
Precipitation  
Precipitation 0.00 in - - ()
Sea Level Pressure  
Sea Level Pressure 30.07 in    
Wind  
Wind Speed 4 mph ()    
Max Wind Speed 7 mph    
Max Gust Speed -    
Visibility 0.8 miles    
Events Fog , Rain    
T = Trace of Precipitation, MM = Missing Value Source: Averaged Metar Reports

Daily Weather History Graph

Daily Weather History Graph

Search for Another Location

Airport:

Trip Planner

Search our weather history database for the weather conditions in past years. The results will help you decide how hot, cold, wet, or windy it might be!

Date:

Astronomy

Feb. 15, 2013 Rise Set
Actual Time 7:49 AM CET 5:50 PM CET
Civil Twilight 7:14 AM CET 6:25 PM CET
Nautical Twilight 6:35 AM CET 7:04 PM CET
Astronomical Twilight 5:57 AM CET 7:43 PM CET
Moon 9:31 AM CET (2/15) No Moon Set
Length of Visible Light 11h 10m
Length of Day
10h 01m
Waxing Crescent, 28% of the Moon is Illuminated
Feb 15
Waxing Crescent
Feb 17
First Quarter
Feb 25
Full
Mar 4
Last Quarter
Mar 11
New

Hourly Weather History & Observations

Time (CET) Temp. Windchill Dew Point Humidity Pressure Visibility Wind Dir Wind Speed Gust Speed Precip Events Conditions
4:50 AM 33.8 °F 30.8 °F 32.0 °F 93% 29.95 in 0.7 mi Variable 3.5 mph - N/A Rain Light Rain Showers
5:20 AM 33.8 °F 29.6 °F 32.0 °F 93% 29.95 in 0.6 mi South 4.6 mph - N/A Fog Fog
5:50 AM 33.8 °F 28.6 °F 33.8 °F 100% 29.98 in - SSE 5.8 mph - N/A Fog Fog
6:20 AM 33.8 °F 28.6 °F 33.8 °F 100% 29.98 in 0.5 mi South 5.8 mph - N/A Fog Fog
6:50 AM 33.8 °F 28.6 °F 33.8 °F 100% 29.98 in 0.5 mi Variable 5.8 mph - N/A Fog Fog
7:20 AM 33.8 °F 28.6 °F 33.8 °F 100% 29.98 in 0.6 mi South 5.8 mph - N/A   Mist
7:50 AM 33.8 °F 29.6 °F 33.8 °F 100% 29.98 in 0.6 mi South 4.6 mph - N/A   Mist
8:20 AM 33.8 °F 29.6 °F 33.8 °F 100% 30.01 in 0.5 mi South 4.6 mph - N/A Fog Fog
8:50 AM 33.8 °F 28.6 °F 33.8 °F 100% 30.01 in - South 5.8 mph - N/A Fog Fog
9:20 AM 33.8 °F 28.6 °F 33.8 °F 100% 30.01 in - South 5.8 mph - N/A Fog Fog
9:50 AM 35.6 °F 32.8 °F 35.6 °F 100% 30.04 in 0.4 mi Variable 3.5 mph - N/A Fog Fog
10:20 AM 35.6 °F 30.7 °F 35.6 °F 100% 30.04 in 0.3 mi SW 5.8 mph - N/A Fog Fog
10:50 AM 35.6 °F 29.9 °F 35.6 °F 100% 30.04 in 0.3 mi SW 6.9 mph - N/A Fog Fog
11:20 AM 35.6 °F 32.8 °F 35.6 °F 100% 30.04 in 0.2 mi Variable 3.5 mph - N/A Fog Fog
11:50 AM 35.6 °F 31.7 °F 35.6 °F 100% 30.06 in 0.2 mi SSW 4.6 mph - N/A Fog Fog
12:20 PM 37.4 °F 32.8 °F 37.4 °F 100% 30.06 in 0.2 mi South 5.8 mph - N/A Fog Fog
12:50 PM 37.4 °F 33.8 °F 37.4 °F 100% 30.06 in 0.2 mi South 4.6 mph - N/A Fog Fog
1:20 PM 37.4 °F 32.8 °F 37.4 °F 100% 30.06 in 0.4 mi SW 5.8 mph - N/A Fog Fog
1:50 PM 37.4 °F 33.8 °F 37.4 °F 100% 30.06 in - SSW 4.6 mph - N/A Fog Fog
2:20 PM 39.2 °F 35.0 °F 37.4 °F 93% 30.06 in 0.3 mi SSW 5.8 mph - N/A Fog Fog
2:50 PM 39.2 °F 35.9 °F 37.4 °F 93% 30.06 in 0.3 mi SW 4.6 mph - N/A Fog Fog
3:20 PM 39.2 °F 35.9 °F 39.2 °F 100% 30.09 in - SSW 4.6 mph - N/A Fog Fog
3:50 PM 39.2 °F 35.0 °F 39.2 °F 100% 30.09 in - WSW 5.8 mph - N/A Fog Fog
4:20 PM 39.2 °F 37.0 °F 39.2 °F 100% 30.09 in - Variable 3.5 mph - N/A Fog Fog
4:50 PM 39.2 °F 35.9 °F 39.2 °F 100% 30.09 in - South 4.6 mph - N/A Fog Fog
5:20 PM 39.2 °F 37.0 °F 39.2 °F 100% 30.09 in 0.6 mi SSW 3.5 mph - N/A Fog Fog
5:50 PM 39.2 °F - 39.2 °F 100% 30.12 in 0.9 mi South 2.3 mph - N/A   Mostly Cloudy
6:20 PM 39.2 °F 37.0 °F 39.2 °F 100% 30.12 in 1.0 mi SW 3.5 mph - N/A   Mostly Cloudy
6:50 PM 37.4 °F 34.9 °F 37.4 °F 100% 30.12 in 1.1 mi SW 3.5 mph - N/A   Mostly Cloudy
7:20 PM 37.4 °F 34.9 °F 37.4 °F 100% 30.15 in 1.1 mi SSW 3.5 mph - N/A   Mostly Cloudy
7:50 PM 39.2 °F 34.2 °F 39.2 °F 100% 30.15 in 1.4 mi WSW 6.9 mph - N/A   Mostly Cloudy
8:20 PM 37.4 °F 34.9 °F 37.4 °F 100% 30.15 in 1.3 mi Variable 3.5 mph - N/A   Mostly Cloudy
8:50 PM 39.2 °F 35.9 °F 37.4 °F 93% 30.15 in 1.4 mi SW 4.6 mph - N/A   Mostly Cloudy
9:20 PM 39.2 °F 35.9 °F 39.2 °F 100% 30.15 in 1.6 mi WSW 4.6 mph - N/A   Mostly Cloudy
9:50 PM 37.4 °F 33.8 °F 37.4 °F 100% 30.15 in 1.3 mi SW 4.6 mph - N/A   Mist
10:20 PM 39.2 °F 35.9 °F 37.4 °F 93% 30.15 in 1.3 mi WSW 4.6 mph - N/A   Mist
10:50 PM 37.4 °F 34.9 °F 37.4 °F 100% 30.15 in 1.4 mi SW 3.5 mph - N/A   Mostly Cloudy
11:20 PM 37.4 °F 32.8 °F 37.4 °F 100% 30.18 in 1.4 mi WSW 5.8 mph - N/A   Mostly Cloudy
11:50 PM 37.4 °F 33.8 °F 37.4 °F 100% 30.18 in 1.4 mi SW 4.6 mph - N/A   Mist